Location: Bocianicha
(51.5066°N, 19.2563°E)
Time: 14:11:41
(UTC+00:00)

Timation 2 Rocket - Pass Details

Date: 15 June 2025
Orbit: 905 x 1074 km, 70.0° (Epoch: 18 July)

Event Time Altitude Azimuth Distance (km) Brightness Sun altitude
Exits shadow 00:08:49 18° 196° (SSW) 2,092 5.1 -12.9°
Maximum altitude 00:13:22 68° 117° (ESE) 972 4.0 -12.6°
Drops below altitude 10° 00:19:18 10° 36° (NE) 2,607 7.6 -12.3°
Sets 00:21:50 0° 34° (NE) 3,564 8.8 -12.1°
